Weather History for 93119 - March, 2013

Change the Weather History Date:

Saturday, March 23, 2013

  Actual Average Record
Temperature  
Mean Temperature 65 °F -  
Max Temperature 71 °F 67 °F - ()
Min Temperature 59 °F 54 °F - ()
Growing Degree Days 15 (Base 50)    
Moisture  
Dew Point 56 °F    
Average Humidity 74    
Maximum Humidity 94    
Minimum Humidity 53    
Precipitation  
Precipitation 0.00 in 0.12 in - ()
Sea Level Pressure  
Sea Level Pressure 30.38 in    
Wind  
Wind Speed 3 mph ()    
Max Wind Speed 6 mph    
Max Gust Speed -    
Visibility 6.2 miles    
Events      
T = Trace of Precipitation, MM = Missing Value Source: Averaged Metar Reports

Daily Weather History Graph

Daily Weather History Graph

Search for Another Location

Airport or City:

Trip Planner

Search our weather history database for the weather conditions in past years. The results will help you decide how hot, cold, wet, or windy it might be!

Date:

Astronomy

Mar. 23, 2013 Rise Set
Actual Time 7:26 AM NZDT 7:28 PM NZDT
Civil Twilight 7:00 AM NZDT 7:54 PM NZDT
Nautical Twilight 6:29 AM NZDT 8:24 PM NZDT
Astronomical Twilight 5:59 AM NZDT 8:54 PM NZDT
Moon 4:43 PM NZDT (3/23) 2:52 AM NZDT (3/23)
Length of Visible Light 12h 53m
Length of Day
12h 02m
Waxing Gibbous, 79% of the Moon is Illuminated
Mar 23
Waxing Gibbous
Mar 27
Full
Apr 3
Last Quarter
Apr 10
New
Apr 19
First Quarter

Hourly Weather History & Observations

Time (NZDT) Temp. Dew Point Humidity Pressure Visibility Wind Dir Wind Speed Gust Speed Precip Events Conditions
12:00 AM 62.6 °F 57.2 °F 82% 30.42 in 6.2 mi NNE 2.3 mph - N/A   Mostly Cloudy
1:00 AM 62.6 °F 57.2 °F 82% 30.42 in 6.2 mi NNE 3.5 mph - N/A   Scattered Clouds
2:00 AM 60.8 °F 57.2 °F 88% 30.42 in 6.2 mi North 1.2 mph - N/A   Scattered Clouds
3:00 AM 59.0 °F 57.2 °F 94% 30.42 in 6.2 mi Variable 2.3 mph - N/A   Partly Cloudy
4:00 AM 59.0 °F 57.2 °F 94% 30.39 in 6.2 mi ESE 1.2 mph - N/A   Mostly Cloudy
5:00 AM 59.0 °F 57.2 °F 94% 30.39 in 6.2 mi SSE 2.3 mph - N/A   Partly Cloudy
6:00 AM 59.0 °F 57.2 °F 94% 30.39 in 6.2 mi SE 2.3 mph - N/A   Partly Cloudy
7:00 AM 59.0 °F 57.2 °F 94% 30.39 in 6.2 mi SSE 3.5 mph - N/A   Partly Cloudy
8:00 AM 60.8 °F 55.4 °F 82% 30.39 in 6.2 mi ESE 4.6 mph - N/A   Mostly Cloudy
9:00 AM 62.6 °F 57.2 °F 82% 30.42 in - SE 3.5 mph - N/A   Clear
10:00 AM 64.4 °F 57.2 °F 77% 30.42 in 6.2 mi ESE 2.3 mph - N/A   Partly Cloudy
11:00 AM 68.0 °F 57.2 °F 68% 30.42 in 6.2 mi SSE 4.6 mph - N/A   Scattered Clouds
12:00 PM 68.0 °F 55.4 °F 64% 30.42 in 6.2 mi South 5.8 mph - N/A   Scattered Clouds
1:00 PM 68.0 °F 55.4 °F 64% 30.39 in 6.2 mi SW 4.6 mph - N/A   Scattered Clouds
2:00 PM 69.8 °F 55.4 °F 60% 30.39 in 6.2 mi WSW 3.5 mph - N/A   Scattered Clouds
3:00 PM 69.8 °F 53.6 °F 56% 30.36 in 6.2 mi North 4.6 mph - N/A   Partly Cloudy
4:00 PM 71.6 °F 53.6 °F 53% 30.33 in 6.2 mi North 3.5 mph - N/A   Scattered Clouds
5:00 PM 71.6 °F 53.6 °F 53% 30.33 in 6.2 mi NNW 3.5 mph - N/A   Scattered Clouds
6:00 PM 69.8 °F 51.8 °F 53% 30.33 in 6.2 mi NNE 3.5 mph - N/A   Scattered Clouds
7:00 PM 68.0 °F 53.6 °F 60% 30.33 in 6.2 mi North 3.5 mph - N/A   Mostly Cloudy
8:00 PM 66.2 °F 55.4 °F 68% 30.33 in 6.2 mi North 5.8 mph - N/A   Scattered Clouds
9:00 PM 64.4 °F 55.4 °F 73% 30.36 in - NNE 4.6 mph - N/A   Clear
10:00 PM 62.6 °F 55.4 °F 77% 30.39 in 6.2 mi NNE 4.6 mph - N/A   Scattered Clouds
11:00 PM 60.8 °F 50.0 °F 68% 30.39 in - NE 5.8 mph - N/A   Clear